DF1NIF-13 Weather Reports


Display with metric or nautical units.
time (UTC)temp
F
wind
direction
speed
MPH
gust
MPH
rain 1hr
in
rain 24hr
in
rain mn
in
humidity
%
barometer
mb
20260906195423 57 195 0.0 0.0 0.00 0.00 0.00 60 978.9
20260906195008 57 195 1.0 0.0 0.00 0.00 0.00 60 978.8
20260906194548 57 195 1.0 1.0 0.00 0.00 0.00 60 978.8
20260906194103 57 195 1.0 3.0 0.00 0.00 0.00 60 978.9
20260906193639 59 195 1.0 3.0 0.00 0.00 0.00 60 979.1
20260906193218 59 194 1.0 3.0 0.00 0.00 0.00 63 978.8
20260906192803 59 182 1.0 3.0 0.00 0.00 0.00 63 978.9
20260906192333 59 182 1.0 3.0 0.00 0.00 0.00 63 978.8
20260906191838 59 172 1.0 3.0 0.00 0.00 0.00 63 978.9
20260906191348 59 288 0.0 3.0 0.00 0.00 0.00 57 979.1
20260906190928 59 339 0.0 3.0 0.00 0.00 0.00 57 979.1
20260906190503 60 339 1.0 3.0 0.00 0.00 0.00 57 979.0
20260906190028 60 26 0.0 3.0 0.00 0.00 0.00 56 978.9
20260906185548 61 26 1.0 3.0 0.00 0.00 0.00 52 979.0
20260906185148 61 26 1.0 3.0 0.00 0.00 0.00 52 979.0
20260906184708 61 56 2.0 3.0 0.00 0.00 0.00 52 979.0
20260906184233 61 60 0.0 1.0 0.00 0.00 0.00 52 978.7
20260906183801 61 60 2.0 1.0 0.00 0.00 0.00 50 978.8
20260906183338 62 36 2.0 1.0 0.00 0.00 0.00 50 978.9
20260906182923 61 36 2.0 1.0 0.00 0.00 0.00 53 978.8
20260906182438 61 36 1.0 1.0 0.00 0.00 0.00 53 978.9
20260906181938 62 36 1.0 1.0 0.00 0.00 0.00 53 978.9
20260906181523 62 36 0.0 0.0 0.00 0.00 0.00 53 978.8
20260906181048 63 36 0.0 0.0 0.00 0.00 0.00 53 978.8
20260906180603 63 36 0.0 0.0 0.00 0.00 0.00 50 978.9
20260906180149 64 352 0.0 0.0 0.00 0.00 0.00 50 978.7
20260906175723 64 352 0.0 0.0 0.00 0.00 0.00 50 978.8
20260906175306 65 352 0.0 0.0 0.00 0.00 0.00 50 979.0
20260906174833 65 352 0.0 0.0 0.00 0.00 0.00 50 978.9
20260906174359 66 352 0.0 0.0 0.00 0.00 0.00 50 978.9
20260906173938 66 352 0.0 1.0 0.00 0.00 0.00 50 979.0
20260906173533 66 352 0.0 1.0 0.00 0.00 0.00 45 978.9
20260906173123 66 352 0.0 1.0 0.00 0.00 0.00 45 978.9
20260906172623 67 352 0.0 1.0 0.00 0.00 0.00 45 978.8
20260906172148 67 352 0.0 1.0 0.00 0.00 0.00 39 978.8
20260906171718 68 352 0.0 1.0 0.00 0.00 0.00 39 979.0
20260906171249 68 350 0.0 1.0 0.00 0.00 0.00 39 978.9
20260906170823 69 350 0.0 1.0 0.00 0.00 0.00 38 979.0
20260906170349 69 350 0.0 1.0 0.00 0.00 0.00 35 979.0
20260906165933 69 350 0.0 0.0 0.00 0.00 0.00 35 978.9
20260906165453 69 350 0.0 3.0 0.00 0.00 0.00 36 979.0
20260906165033 69 350 0.0 3.0 0.00 0.00 0.00 32 978.9
20260906164558 70 350 1.0 3.0 0.00 0.00 0.00 32 979.0
20260906164128 71 350 0.0 3.0 0.00 0.00 0.00 32 979.0
20260906163703 72 21 0.0 3.0 0.00 0.00 0.00 32 978.7
20260906163219 72 20 2.0 1.0 0.00 0.00 0.00 32 978.9
20260906162743 72 15 0.0 1.0 0.00 0.00 0.00 32 979.0
20260906162318 72 15 0.0 1.0 0.00 0.00 0.00 32 978.9
20260906161908 72 15 1.0 1.0 0.00 0.00 0.00 32 978.9
20260906161428 72 15 2.0 3.0 0.00 0.00 0.00 32 978.9
20260906160943 73 15 2.0 3.0 0.00 0.00 0.00 32 978.7
20260906160503 73 15 0.0 3.0 0.00 0.00 0.00 32 979.0
20260906160013 73 174 0.0 3.0 0.00 0.00 0.00 32 978.8
20260906155528 72 157 2.0 1.0 0.00 0.00 0.00 33 978.8
20260906155053 73 93 2.0 1.0 0.00 0.00 0.00 33 978.9
20260906154628 73 93 2.0 0.0 0.00 0.00 0.00 33 978.8
20260906154148 73 93 1.0 1.0 0.00 0.00 0.00 33 979.0
20260906153704 73 93 1.0 1.0 0.00 0.00 0.00 33 978.9
20260906153218 73 93 1.0 1.0 0.00 0.00 0.00 33 979.1
20260906152738 74 93 0.0 1.0 0.00 0.00 0.00 33 979.1
20260906152248 74 84 1.0 1.0 0.00 0.00 0.00 31 979.1
20260906151843 74 117 1.0 1.0 0.00 0.00 0.00 31 979.1
20260906151408 74 117 0.0 1.0 0.00 0.00 0.00 31 979.2
20260906150933 74 117 0.0 3.0 0.00 0.00 0.00 31 979.2
20260906150508 74 103 2.0 3.0 0.00 0.00 0.00 31 979.5
20260906150058 74 103 1.0 3.0 0.00 0.00 0.00 31 979.4
20260906145623 74 103 1.0 3.0 0.00 0.00 0.00 31 979.2
20260906145203 72 103 0.0 5.0 0.00 0.00 0.00 31 979.4
20260906144739 72 103 0.0 5.0 0.00 0.00 0.00 31 979.5
20260906144259 72 115 1.0 5.0 0.00 0.00 0.00 31 979.5
20260906143833 72 115 0.0 5.0 0.00 0.00 0.00 31 979.4
20260906143333 72 354 1.0 5.0 0.00 0.00 0.00 33 979.6
20260906142853 74 348 4.0 5.0 0.00 0.00 0.00 33 979.6
20260906142428 73 98 0.0 3.0 0.00 0.00 0.00 33 979.7
20260906142018 73 106 0.0 3.0 0.00 0.00 0.00 34 979.5
20260906141603 73 106 2.0 3.0 0.00 0.00 0.00 34 979.8
20260906141118 72 114 2.0 3.0 0.00 0.00 0.00 34 980.0
20260906140638 72 114 4.0 7.0 0.00 0.00 0.00 34 979.8
20260906140233 73 114 1.0 5.0 0.00 0.00 0.00 34 979.8
20260906135800 73 344 3.0 0.0 0.00 0.00 0.00 34 980.0
20260906135318 73 107 1.0 3.0 0.00 0.00 0.00 34 980.0
20260906134859 72 107 3.0 5.0 0.00 0.00 0.00 34 979.9
20260906134438 72 104 0.0 3.0 0.00 0.00 0.00 34 979.9
20260906133958 72 104 1.0 1.0 0.00 0.00 0.00 34 979.8
20260906133538 72 132 2.0 3.0 0.00 0.00 0.00 34 979.9
20260906133053 71 132 1.0 5.0 0.00 0.00 0.00 36 979.9
20260906132643 71 132 4.0 7.0 0.00 0.00 0.00 36 979.9
20260906132159 71 132 0.0 5.0 0.00 0.00 0.00 36 980.1
20260906131719 74 107 3.0 1.0 0.00 0.00 0.00 34 980.1
20260906131259 72 107 1.0 1.0 0.00 0.00 0.00 34 980.1
20260906130828 71 107 1.0 1.0 0.00 0.00 0.00 36 980.0
20260906130427 73 107 3.0 3.0 0.00 0.00 0.00 37 979.9
20260906125958 72 107 0.0 1.0 0.00 0.00 0.00 37 979.9
20260906125528 72 107 0.0 3.0 0.00 0.00 0.00 37 980.1
20260906125108 69 96 4.0 7.0 0.00 0.00 0.00 37 980.2
20260906124633 68 80 3.0 5.0 0.00 0.00 0.00 41 980.1
20260906124153 68 336 2.0 5.0 0.00 0.00 0.00 39 980.2
20260906123713 68 327 0.0 9.0 0.00 0.00 0.00 39 980.2
20260906123238 68 89 0.0 3.0 0.00 0.00 0.00 39 980.4
20260906122818 69 349 0.0 1.0 0.00 0.00 0.00 40 980.6
20260906122333 70 349 0.0 1.0 0.00 0.00 0.00 37 980.5
20260906121903 70 342 0.0 7.0 0.00 0.00 0.00 37 980.5
20260906121448 69 345 0.0 0.0 0.00 0.00 0.00 37 980.4
20260906121023 71 345 4.0 0.0 0.00 0.00 0.00 37 980.4
20260906120558 71 107 2.0 0.0 0.00 0.00 0.00 37 980.5
20260906120138 71 0 0.0 0.0 0.00 0.00 0.00 37 980.6
20260906115708 69 108 2.0 3.0 0.00 0.00 0.00 42 980.7
20260906115239 69 108 0.0 5.0 0.00 0.00 0.00 42 980.7
20260906114833 67 14 0.0 1.0 0.00 0.00 0.00 44 980.8
20260906114405 67 14 3.0 9.0 0.00 0.00 0.00 44 980.9
20260906113959 66 113 5.0 7.0 0.00 0.00 0.00 44 980.8
20260906113533 67 106 5.0 9.0 0.00 0.00 0.00 44 981.1
20260906113043 67 51 1.0 9.0 0.00 0.00 0.00 44 981.1
20260906112618 67 51 3.0 7.0 0.00 0.00 0.00 44 980.9
20260906112133 67 99 0.0 1.0 0.00 0.00 0.00 44 980.9
20260906111718 67 99 0.0 3.0 0.00 0.00 0.00 44 981.0
20260906111233 67 99 0.0 9.0 0.00 0.00 0.00 44 981.0
20260906110813 66 105 4.0 3.0 0.00 0.00 0.00 44 981.0
20260906110348 65 102 0.0 5.0 0.00 0.00 0.00 44 981.0
20260906105900 65 110 1.0 5.0 0.00 0.00 0.00 44 980.8
20260906105418 66 114 1.0 7.0 0.00 0.00 0.00 46 981.2
20260906105008 67 114 1.0 9.0 0.00 0.00 0.00 45 981.2
20260906104528 64 101 1.0 3.0 0.00 0.00 0.00 45 980.9
20260906104038 64 126 1.0 3.0 0.00 0.00 0.00 45 981.1
20260906103549 64 126 6.0 9.0 0.00 0.00 0.00 48 981.1
20260906103118 65 104 3.0 7.0 0.00 0.00 0.00 48 981.1
20260906102643 65 147 4.0 7.0 0.00 0.00 0.00 48 981.3
20260906102219 65 110 1.0 11.0 0.00 0.00 0.00 47 981.3
20260906101748 65 115 1.0 9.0 0.00 0.00 0.00 45 981.4
20260906101323 65 115 1.0 1.0 0.00 0.00 0.00 51 981.4
20260906100908 63 347 2.0 7.0 0.00 0.00 0.00 51 981.4
20260906100418 63 99 2.0 1.0 0.00 0.00 0.00 51 981.5
20260906095958 62 357 1.0 3.0 0.00 0.00 0.00 51 981.4
20260906095523 61 77 0.0 3.0 0.00 0.00 0.00 54 981.4
20260906095029 61 339 1.0 3.0 0.00 0.00 0.00 54 981.6
20260906094559 61 339 0.0 7.0 0.00 0.00 0.00 55 981.7
20260906094148 63 339 0.0 7.0 0.00 0.00 0.00 54 981.6
20260906093653 63 28 8.0 3.0 0.00 0.00 0.00 54 981.7
20260906093218 64 112 1.0 5.0 0.00 0.00 0.00 56 981.7
20260906092733 60 351 1.0 3.0 0.00 0.00 0.00 56 981.7
20260906092248 60 352 2.0 5.0 0.00 0.00 0.00 56 981.6
20260906091839 60 352 0.0 3.0 0.00 0.00 0.00 56 981.8
20260906091408 60 328 5.0 3.0 0.00 0.00 0.00 53 981.7
20260906090953 60 101 0.0 3.0 0.00 0.00 0.00 56 981.8
20260906090518 62 341 8.0 5.0 0.00 0.00 0.00 52 981.8
20260906090058 62 110 1.0 5.0 0.00 0.00 0.00 52 981.8
20260906085613 62 110 2.0 5.0 0.00 0.00 0.00 52 981.9
20260906085119 57 110 1.0 3.0 0.00 0.00 0.00 52 981.7
20260906084708 57 345 2.0 1.0 0.00 0.00 0.00 59 981.7
20260906084225 57 345 7.0 5.0 0.00 0.00 0.00 59 981.8
20260906083748 58 325 7.0 5.0 0.00 0.00 0.00 59 981.5
20260906083318 58 344 0.0 9.0 0.00 0.00 0.00 61 981.7
20260906082843 58 347 1.0 3.0 0.00 0.00 0.00 59 981.8
20260906082423 57 15 7.0 9.0 0.00 0.00 0.00 59 981.7
20260906082003 57 15 4.0 3.0 0.00 0.00 0.00 60 981.7
20260906081538 57 19 3.0 3.0 0.00 0.00 0.00 60 981.7
20260906081118 57 334 2.0 5.0 0.00 0.00 0.00 61 981.7
20260906080648 58 337 1.0 7.0 0.00 0.00 0.00 61 981.6
20260906080203 58 342 1.0 1.0 0.00 0.00 0.00 61 981.5
20260906075725 58 341 1.0 1.0 0.00 0.00 0.00 61 981.7
20260906075248 56 341 1.0 1.0 0.00 0.00 0.00 63 981.4
20260906074753 58 336 8.0 5.0 0.00 0.00 0.00 63 981.4
20260906074328 58 69 9.0 3.0 0.00 0.00 0.00 63 981.6
20260906073903 57 69 2.0 3.0 0.00 0.00 0.00 63 981.4
20260906073423 57 69 0.0 3.0 0.00 0.00 0.00 68 981.3
20260906072958 57 0 0.0 0.0 0.00 0.00 0.00 100 981.8
20260906072508 56 333 2.0 9.0 0.00 0.00 0.00 70 981.7
20260906072023 55 334 2.0 7.0 0.00 0.00 0.00 69 981.4
20260906071533 56 340 2.0 7.0 0.00 0.00 0.00 70 981.4
20260906071108 56 347 4.0 1.0 0.00 0.00 0.00 68 981.1
20260906070618 57 7 1.0 3.0 0.00 0.00 0.00 68 981.2
20260906070133 57 7 0.0 0.0 0.00 0.00 0.00 68 981.1
20260906065658 59 7 0.0 3.0 0.00 0.00 0.00 68 981.1
20260906065213 59 22 1.0 1.0 0.00 0.00 0.00 68 981.2
20260906064738 58 66 0.0 1.0 0.00 0.00 0.00 68 981.1
20260906064313 58 64 0.0 1.0 0.00 0.00 0.00 68 981.3
20260906063843 58 64 0.0 1.0 0.00 0.00 0.00 67 981.3
20260906063408 57 64 1.0 1.0 0.00 0.00 0.00 67 981.3
20260906062938 57 64 1.0 1.0 0.00 0.00 0.00 67 981.1
20260906062513 57 58 1.0 1.0 0.00 0.00 0.00 67 981.1
20260906062033 57 39 2.0 1.0 0.00 0.00 0.00 67 981.0
20260906061608 56 39 2.0 1.0 0.00 0.00 0.00 67 981.0
20260906061153 53 39 2.0 1.0 0.00 0.00 0.00 69 981.0
20260906060708 53 39 2.0 1.0 0.00 0.00 0.00 80 980.9
20260906060243 53 39 1.0 1.0 0.00 0.00 0.00 80 980.7
20260906055803 49 39 1.0 1.0 0.00 0.00 0.00 80 980.9
20260906055313 49 39 0.0 0.0 0.00 0.00 0.00 84 980.8
20260906054853 49 39 1.0 0.0 0.00 0.00 0.00 84 981.1
20260906054428 49 39 1.0 1.0 0.00 0.00 0.00 84 980.7
20260906054000 49 39 1.0 1.0 0.00 0.00 0.00 84 981.0
20260906053523 48 39 1.0 0.0 0.00 0.00 0.00 84 980.7
20260906053108 48 39 1.0 0.0 0.00 0.00 0.00 84 980.8
20260906052633 48 39 1.0 0.0 0.00 0.00 0.00 84 980.5
20260906052158 48 39 0.0 0.0 0.00 0.00 0.00 84 980.7
20260906051728 48 39 0.0 0.0 0.00 0.00 0.00 89 980.6
20260906051253 48 39 1.0 0.0 0.00 0.00 0.00 89 980.4
20260906050819 48 39 1.0 0.0 0.00 0.00 0.00 89 980.4
20260906050348 48 39 1.0 0.0 0.00 0.00 0.00 90 980.6
20260906045908 48 39 0.0 0.0 0.00 0.00 0.00 89 980.4
20260906045418 48 39 1.0 0.0 0.00 0.00 0.00 85 980.5
20260906044943 49 39 0.0 0.0 0.00 0.00 0.00 85 980.4
20260906044539 47 39 1.0 0.0 0.00 0.00 0.00 90 980.4
20260906044113 47 39 0.0 0.0 0.00 0.00 0.00 90 980.3
20260906043628 47 39 0.0 0.0 0.00 0.00 0.00 90 980.2
20260906043208 48 39 0.0 0.0 0.00 0.00 0.00 90 980.4
20260906042753 48 39 0.0 0.0 0.00 0.00 0.00 90 980.4
20260906042339 48 39 0.0 0.0 0.00 0.00 0.00 91 980.4
20260906041939 48 39 0.0 0.0 0.00 0.00 0.00 91 980.4
20260906041448 47 66 0.0 0.0 0.00 0.00 0.00 91 980.5
20260906041048 47 66 0.0 0.0 0.00 0.00 0.00 91 980.3
20260906040638 47 66 1.0 0.0 0.00 0.00 0.00 91 980.6
20260906040201 47 66 0.0 0.0 0.00 0.00 0.00 91 980.3
20260906035748 47 66 0.0 0.0 0.00 0.00 0.00 90 980.4
20260906035323 48 66 1.0 0.0 0.00 0.00 0.00 90 980.3
20260906034853 48 66 0.0 0.0 0.00 0.00 0.00 91 980.2
20260906034443 48 335 0.0 1.0 0.00 0.00 0.00 91 980.2
20260906034013 48 335 0.0 1.0 0.00 0.00 0.00 91 980.1
20260906033533 48 332 0.0 1.0 0.00 0.00 0.00 89 979.8
20260906033045 48 332 0.0 3.0 0.00 0.00 0.00 89 980.1
20260906032629 48 76 0.0 1.0 0.00 0.00 0.00 89 980.3
20260906032208 48 76 0.0 0.0 0.00 0.00 0.00 89 979.9
20260906031743 48 76 0.0 0.0 0.00 0.00 0.00 89 980.1
20260906031300 48 76 0.0 0.0 0.00 0.00 0.00 87 980.2
20260906030828 49 76 0.0 0.0 0.00 0.00 0.00 87 980.0
20260906030350 49 76 0.0 0.0 0.00 0.00 0.00 87 980.0
20260906025908 49 76 0.0 0.0 0.00 0.00 0.00 87 980.1
20260906025428 49 76 0.0 0.0 0.00 0.00 0.00 87 980.0
20260906024933 49 76 0.0 1.0 0.00 0.00 0.00 87 979.8
20260906024458 49 76 0.0 3.0 0.00 0.00 0.00 87 979.9
20260906024023 49 76 1.0 3.0 0.00 0.00 0.00 87 979.9
20260906023550 49 76 1.0 3.0 0.00 0.00 0.00 87 979.9
20260906023119 51 76 1.0 3.0 0.00 0.00 0.00 87 979.9
20260906022633 51 76 1.0 3.0 0.00 0.00 0.00 87 979.8
20260906022228 51 76 1.0 1.0 0.00 0.00 0.00 87 979.7
20260906021818 51 76 0.0 1.0 0.00 0.00 0.00 87 979.9
20260906021343 51 120 1.0 1.0 0.00 0.00 0.00 85 979.6
20260906020908 51 210 0.0 1.0 0.00 0.00 0.00 85 979.6
20260906020428 51 210 1.0 1.0 0.00 0.00 0.00 85 979.7
20260906015933 51 210 0.0 1.0 0.00 0.00 0.00 85 979.7
20260906015533 51 210 0.0 1.0 0.00 0.00 0.00 85 979.7
20260906015048 51 210 0.0 0.0 0.00 0.00 0.00 82 979.3
20260906014608 51 210 0.0 0.0 0.00 0.00 0.00 82 979.7
20260906014128 51 210 0.0 0.0 0.00 0.00 0.00 82 979.4
20260906013713 51 210 0.0 0.0 0.00 0.00 0.00 82 979.4
20260906013248 51 210 0.0 0.0 0.00 0.00 0.00 82 979.4
20260906012808 51 210 0.0 1.0 0.00 0.00 0.00 82 979.8
20260906012348 51 210 0.0 0.0 0.00 0.00 0.00 82 979.4
20260906011918 51 210 0.0 1.0 0.00 0.00 0.00 82 979.4
20260906011448 51 210 0.0 1.0 0.00 0.00 0.00 82 979.3
20260906011038 51 210 1.0 1.0 0.00 0.00 0.00 82 979.3
20260906010608 51 210 2.0 1.0 0.00 0.00 0.00 82 979.1
20260906010138 51 210 0.0 0.0 0.00 0.00 0.00 82 979.3
20260906005718 51 210 0.0 0.0 0.00 0.00 0.00 82 979.3
20260906005308 51 210 0.0 0.0 0.00 0.00 0.00 82 979.3
20260906004818 51 210 0.0 0.0 0.00 0.00 0.00 82 979.1
20260906004358 51 210 0.0 0.0 0.00 0.00 0.00 82 979.5
20260906003918 51 210 0.0 0.0 0.00 0.00 0.00 82 979.3
20260906003439 52 210 0.0 0.0 0.00 0.00 0.00 82 979.3
20260906003008 52 210 0.0 0.0 0.00 0.00 0.00 82 979.3
20260906002538 52 210 1.0 1.0 0.00 0.00 0.00 74 979.3
20260906002109 52 210 0.0 1.0 0.00 0.00 0.00 74 979.2
20260906001628 52 210 0.0 1.0 0.00 0.00 0.00 74 979.2
20260906001208 52 210 1.0 1.0 0.00 0.00 0.00 74 979.0
20260906000728 52 211 0.0 1.0 0.00 0.00 0.00 74 978.9
20260906000248 52 211 1.0 1.0 0.00 0.00 0.00 74 979.0
20260905235800 52 166 2.0 0.0 0.00 0.00 0.00 74 979.1
20260905235338 52 166 1.0 0.0 0.00 0.00 0.00 74 979.0
20260905234853 52 166 0.0 0.0 0.00 0.00 0.00 74 979.1
20260905234418 52 179 0.0 0.0 0.00 0.00 0.00 74 978.9
20260905233928 52 179 0.0 0.0 0.00 0.00 0.00 74 979.0
20260905233518 52 153 1.0 0.0 0.00 0.00 0.00 74 978.9
20260905233053 54 15 1.0 0.0 0.00 0.00 0.00 74 978.9
20260905232618 54 15 1.0 0.0 0.00 0.00 0.00 74 979.0
20260905232123 53 15 0.0 0.0 0.00 0.00 0.00 74 978.6
20260905231659 53 15 0.0 0.0 0.00 0.00 0.00 74 978.9
20260905231228 53 15 0.0 0.0 0.00 0.00 0.00 74 978.7
20260905230748 53 15 0.0 1.0 0.00 0.00 0.00 76 978.7
20260905230303 53 15 0.0 0.0 0.00 0.00 0.00 76 978.8
20260905225828 54 15 0.0 0.0 0.00 0.00 0.00 73 978.8
20260905225358 55 15 1.0 1.0 0.00 0.00 0.00 73 978.7
20260905224938 55 15 0.0 1.0 0.00 0.00 0.00 72 978.5
20260905224458 55 15 0.0 1.0 0.00 0.00 0.00 72 978.6
20260905224038 55 15 0.0 1.0 0.00 0.00 0.00 71 978.6
20260905223543 56 24 0.0 0.0 0.00 0.00 0.00 71 978.4
20260905223058 56 24 0.0 1.0 0.00 0.00 0.00 69 978.6
20260905222613 56 2 0.0 1.0 0.00 0.00 0.00 60 978.5
20260905222148 56 2 0.0 1.0 0.00 0.00 0.00 60 978.5
20260905221653 55 2 1.0 1.0 0.00 0.00 0.00 60 978.3
20260905221223 55 294 1.0 1.0 0.00 0.00 0.00 60 978.3
20260905220748 55 294 2.0 3.0 0.00 0.00 0.00 60 978.3
20260905220318 55 294 2.0 1.0 0.00 0.00 0.00 60 978.2
20260905215833 55 294 1.0 3.0 0.00 0.00 0.00 60 978.1
20260905215418 55 293 2.0 3.0 0.00 0.00 0.00 60 978.3
20260905214948 55 293 1.0 3.0 0.00 0.00 0.00 60 978.5
20260905214513 57 293 1.0 3.0 0.00 0.00 0.00 60 978.4
20260905214023 57 293 1.0 3.0 0.00 0.00 0.00 60 978.3
20260905213553 57 293 1.0 3.0 0.00 0.00 0.00 60 978.5
20260905213118 57 292 3.0 3.0 0.00 0.00 0.00 60 978.2
20260905212658 57 339 3.0 3.0 0.00 0.00 0.00 60 978.3
20260905212218 58 339 1.0 1.0 0.00 0.00 0.00 60 978.3
20260905211738 58 339 1.0 1.0 0.00 0.00 0.00 60 978.3
20260905211318 58 339 0.0 1.0 0.00 0.00 0.00 60 978.1
20260905210858 59 339 0.0 1.0 0.00 0.00 0.00 60 978.3
20260905210428 59 339 0.0 1.0 0.00 0.00 0.00 60 978.1
20260905205948 59 339 0.0 1.0 0.00 0.00 0.00 60 978.0
20260905205523 59 339 0.0 1.0 0.00 0.00 0.00 60 978.0
20260905205048 60 339 1.0 1.0 0.00 0.00 0.00 60 978.0
20260905204633 60 339 0.0 1.0 0.00 0.00 0.00 56 977.9
20260905204158 61 339 0.0 1.0 0.00 0.00 0.00 56 978.0
20260905203728 61 339 0.0 1.0 0.00 0.00 0.00 56 977.8
20260905203243 61 340 5.0 3.0 0.00 0.00 0.00 56 978.0
20260905202818 61 340 5.0 3.0 0.00 0.00 0.00 56 977.7
20260905202343 61 295 5.0 5.0 0.00 0.00 0.00 56 977.7
20260905201913 61 295 5.0 5.0 0.00 0.00 0.00 54 977.7
20260905201443 61 295 5.0 5.0 0.00 0.00 0.00 54 977.4
20260905201008 61 348 2.0 13.0 0.00 0.00 0.00 54 977.8
20260905200559 61 348 5.0 13.0 0.00 0.00 0.00 54 977.7
20260905200139 61 348 5.0 3.0 0.00 0.00 0.00 54 977.5
20260905195718 61 348 4.0 3.0 0.00 0.00 0.00 54 977.5